OH2TH Weather Reports


Display with metric or nautical units.
time (UTC)temp
F
wind
direction
speed
MPH
gust
MPH
rain 1hr
in
rain 24hr
in
rain mn
in
humidity
%
barometer
mb
20260506093003 52 141 0.0 0.0 0.00 0.00 0.00 30 101.0
20260506091503 52 319 0.0 0.0 0.00 0.00 0.00 33 101.0
20260506090003 52 70 0.0 0.0 0.00 0.00 0.00 31 101.0
20260506084502 54 42 0.0 0.0 0.00 0.00 0.00 31 101.0
20260506083002 54 319 0.0 0.0 0.00 0.00 0.00 30 101.0
20260506081502 54 357 0.0 0.0 0.00 0.00 0.00 29 101.0
20260506073002 50 302 0.0 0.0 0.00 0.00 0.00 42 101.0
20260506071502 50 55 0.0 0.0 0.00 0.00 0.00 42 101.0
20260506061501 45 147 0.0 0.0 0.00 0.00 0.00 52 101.0
20260506044504 36 350 0.0 0.0 0.00 0.00 0.00 77 101.0
20260506043004 36 142 0.0 0.0 0.00 0.00 0.00 81 101.0
20260506041503 34 304 0.0 0.0 0.00 0.00 0.00 82 101.0
20260506040003 34 191 0.0 0.0 0.00 0.00 0.00 81 101.0
20260506034502 0 107 0.0 0.0 0.00 0.00 0.00 83 101.0
20260506033001 0 141 0.0 0.0 0.00 0.00 0.00 81 101.0
20260506031500 32 129 0.0 0.0 0.00 0.00 0.00 83 101.0
20260506030004 32 315 0.0 0.0 0.00 0.00 0.00 84 101.0
20260506024503 32 129 0.0 0.0 0.00 0.00 0.00 82 101.0
20260506023003 30 129 0.0 0.0 0.00 0.00 0.00 82 101.0
20260506021502 30 138 0.0 0.0 0.00 0.00 0.00 85 101.0
20260506020001 32 50 0.0 0.0 0.00 0.00 0.00 83 101.0
20260506014501 32 55 0.0 0.0 0.00 0.00 0.00 83 101.0
20260506013005 32 66 0.0 0.0 0.00 0.00 0.00 82 101.0
20260506011504 0 135 0.0 0.0 0.00 0.00 0.00 80 101.0
20260506010003 32 230 0.0 0.0 0.00 0.00 0.00 83 101.0
20260506004503 34 129 0.0 0.0 0.00 0.00 0.00 80 101.0
20260506003002 34 50 0.0 0.0 0.00 0.00 0.00 81 101.0
20260506001501 34 212 0.0 0.0 0.00 0.00 0.00 79 101.0
20260506000000 34 129 0.0 0.0 0.00 0.00 0.00 76 101.0
20260505234504 34 129 0.0 0.0 0.00 0.00 0.00 79 101.0
20260505233004 35 230 0.0 0.0 0.00 0.00 0.00 76 101.0
20260505231503 35 147 0.0 0.0 0.00 0.00 0.00 74 101.0
20260505230002 35 129 0.0 0.0 0.00 0.00 0.00 76 101.0
20260505224502 37 304 0.0 0.0 0.00 0.00 0.00 75 101.0
20260505223001 37 230 0.0 0.0 0.00 0.00 0.00 72 101.0
20260505221500 37 37 0.0 0.0 0.00 0.00 0.00 73 101.0
20260505220005 37 135 0.0 0.0 0.00 0.00 0.00 74 101.0
20260505214504 39 129 0.0 0.0 0.00 0.00 0.00 70 101.0
20260505213003 39 69 0.0 0.0 0.00 0.00 0.00 68 101.0
20260505211503 39 135 0.0 0.0 0.00 0.00 0.00 70 101.0
20260505210002 39 272 0.0 0.0 0.00 0.00 0.00 67 101.0
20260505204501 40 129 0.0 0.0 0.00 0.89 0.89 64 101.0
20260505203000 40 135 0.0 0.0 0.00 0.89 0.89 62 101.0
20260505201504 40 113 0.0 0.0 0.00 0.89 0.89 63 101.0
20260505200004 40 322 0.0 0.0 0.00 0.89 0.89 62 101.0
20260505194504 42 142 0.0 0.0 0.00 0.89 0.89 59 101.0
20260505193003 42 50 0.0 0.0 0.00 0.89 0.89 58 100.0
20260505191503 42 193 0.0 0.0 0.00 0.89 0.89 56 100.0
20260505190003 42 89 0.0 0.0 0.00 0.89 0.89 52 100.0
20260505184502 44 50 0.0 0.0 0.00 0.89 0.89 49 100.0
20260505183001 44 214 0.0 0.0 0.00 0.89 0.89 47 100.0
20260505181501 46 122 0.0 0.0 0.00 0.89 0.89 43 100.0
20260505180001 46 341 0.0 0.0 0.00 0.89 0.89 43 100.0
20260505174501 47 34 0.0 0.0 0.00 0.89 0.89 43 100.0
20260505173000 47 168 0.0 0.0 0.00 0.89 0.89 41 100.0
20260505171505 47 207 0.0 0.0 0.00 0.89 0.89 39 100.0
20260505170004 49 127 0.0 0.0 0.00 0.89 0.89 38 100.0
20260505164504 49 329 0.0 0.0 0.00 0.89 0.89 37 100.0
20260505163004 49 177 0.0 0.0 0.00 0.89 0.89 37 100.0
20260505161504 51 132 0.0 0.0 0.00 0.89 0.89 36 100.0
20260505153004 53 184 0.0 0.0 0.00 1.17 0.89 28 100.0
20260505151504 53 172 0.0 0.0 0.00 1.17 0.89 33 100.0
20260505124502 56 95 0.0 0.0 0.00 1.17 0.89 36 100.0
20260505123002 56 353 0.0 0.0 0.00 1.17 0.89 36 100.0
20260505121502 56 99 0.0 0.0 0.00 1.17 0.89 40 100.0
20260505120002 56 359 0.0 0.0 0.00 1.17 0.89 40 100.0
20260505114502 56 25 0.0 0.0 0.00 1.74 0.89 37 100.0
20260505113002 56 78 0.0 0.0 0.00 1.74 0.89 40 100.0
20260505111501 57 9 0.0 0.0 0.00 1.74 0.89 35 100.0
20260505101500 56 49 0.0 0.0 0.00 4.83 0.89 42 100.0
20260505100000 56 63 0.0 0.0 0.00 7.83 0.89 43 100.0
20260505094500 58 236 0.0 0.0 0.00 7.83 0.89 38 100.0